Weather History for Wahoo, NE

Change the Weather History Date:

Tuesday, November 19, 2013

  Actual Average Record
Temperature  
Mean Temperature 45 °F -  
Max Temperature 62 °F 49 °F 63 °F (2012)
Min Temperature 28 °F 28 °F 13 °F (1989)
Degree Days  
Heating Degree Days 20    
Moisture  
Dew Point 26 °F    
Average Humidity 52    
Maximum Humidity 83    
Minimum Humidity 26    
Precipitation  
Precipitation 0.00 in - - ()
Sea Level Pressure  
Sea Level Pressure 29.98 in    
Wind  
Wind Speed 11 mph (SSE)    
Max Wind Speed 29 mph    
Max Gust Speed 39 mph    
Visibility 10 miles    
Events      
Averages and records for this station are not official NWS values.
T = Trace of Precipitation, MM = Missing Value Source: NWS Daily Summary

Daily Weather History Graph

Daily Weather History Graph

Search for Another Location

Airport:

Trip Planner

Search our weather history database for the weather conditions in past years. The results will help you decide how hot, cold, wet, or windy it might be!

Date:

Astronomy

Nov. 19, 2013 Rise Set
Actual Time 7:19 AM CST 5:03 PM CST
Civil Twilight 6:49 AM CST 5:33 PM CST
Nautical Twilight 6:15 AM CST 6:07 PM CST
Astronomical Twilight 5:43 AM CST 6:40 PM CST
Moon 6:55 PM CST (11/19) 8:59 AM CST (11/19)
Length of Visible Light 10h 44m
Length of Day
9h 44m
Waning Gibbous, 96% of the Moon is Illuminated
Nov 19
Waning Gibbous
Nov 25
Last Quarter
Dec 2
New
Dec 9
First Quarter
Dec 17
Full

Hourly Weather History & Observations

Time (CST) Temp. Windchill Dew Point Humidity Pressure Visibility Wind Dir Wind Speed Gust Speed Precip Events Conditions
12:15 AM 32.0 °F 25.6 °F 24.3 °F 73% 30.16 in 10.0 mi SSE 6.9 mph - N/A   Clear
12:35 AM 31.6 °F 26.0 °F 23.9 °F 73% 30.16 in 10.0 mi SSE 5.8 mph - N/A   Clear
12:55 AM 32.2 °F 26.7 °F 24.1 °F 72% 30.15 in 10.0 mi SSE 5.8 mph - N/A   Clear
1:15 AM 32.0 °F 27.5 °F 24.1 °F 73% 30.15 in 10.0 mi South 4.6 mph - N/A   Clear
1:35 AM 31.6 °F 25.1 °F 23.7 °F 73% 30.14 in 10.0 mi SSE 6.9 mph - N/A   Clear
1:55 AM 31.5 °F 24.9 °F 23.9 °F 74% 30.14 in 10.0 mi SSE 6.9 mph - N/A   Clear
2:15 AM 30.6 °F 24.7 °F 23.7 °F 76% 30.14 in 10.0 mi SSE 5.8 mph - N/A   Clear
2:35 AM 30.6 °F - 23.5 °F 75% 30.14 in 10.0 mi Calm Calm - N/A   Clear
2:55 AM 30.2 °F 24.3 °F 23.2 °F 75% 30.14 in 10.0 mi SSE 5.8 mph - N/A   Clear
3:15 AM 29.8 °F 22.2 °F 22.8 °F 75% 30.13 in 10.0 mi South 8.1 mph - N/A   Clear
3:35 AM 29.1 °F 22.1 °F 22.8 °F 77% 30.12 in 10.0 mi SSE 6.9 mph - N/A   Clear
3:55 AM 29.1 °F 24.1 °F 23.0 °F 78% 30.12 in 10.0 mi SSE 4.6 mph - N/A   Clear
4:15 AM 29.1 °F 24.1 °F 23.0 °F 78% 30.12 in 10.0 mi SE 4.6 mph - N/A   Clear
4:35 AM 28.9 °F 21.9 °F 22.6 °F 77% 30.12 in 10.0 mi SSE 6.9 mph - N/A   Clear
4:55 AM 29.3 °F 21.5 °F 23.5 °F 79% 30.11 in 10.0 mi SE 8.1 mph - N/A   Clear
5:15 AM 29.1 °F 22.1 °F 23.7 °F 80% 30.11 in 10.0 mi SE 6.9 mph - N/A   Clear
5:35 AM 28.9 °F 22.8 °F 23.7 °F 81% 30.11 in 10.0 mi SE 5.8 mph - N/A   Clear
5:55 AM 29.3 °F 21.5 °F 24.1 °F 81% 30.11 in 10.0 mi SSE 8.1 mph - N/A   Clear
6:15 AM 29.1 °F 22.1 °F 24.1 °F 81% 30.10 in 10.0 mi SSE 6.9 mph - N/A   Clear
6:35 AM 28.8 °F 23.7 °F 23.7 °F 81% 30.10 in 10.0 mi SSE 4.6 mph - N/A   Clear
6:55 AM 28.9 °F 23.9 °F 23.9 °F 81% 30.10 in 10.0 mi SE 4.6 mph - N/A   Clear
7:15 AM 29.1 °F 25.4 °F 24.3 °F 82% 30.09 in 10.0 mi SE 3.5 mph - N/A   Clear
7:35 AM 28.4 °F 22.2 °F 23.9 °F 83% 30.09 in 10.0 mi SSE 5.8 mph - N/A   Clear
7:55 AM 31.3 °F 23.9 °F 26.4 °F 82% 30.09 in 10.0 mi SSE 8.1 mph - N/A   Clear
8:15 AM 33.8 °F 27.0 °F 27.5 °F 78% 30.08 in 10.0 mi SSE 8.1 mph - N/A   Clear
8:35 AM 35.1 °F 30.1 °F 28.8 °F 78% 30.08 in 10.0 mi SE 5.8 mph - N/A   Clear
8:55 AM 35.8 °F 30.9 °F 29.7 °F 78% 30.07 in 10.0 mi SE 5.8 mph - N/A   Clear
9:15 AM 39.6 °F 34.7 °F 30.4 °F 70% 30.07 in 10.0 mi SSE 6.9 mph - N/A   Clear
9:35 AM 42.4 °F 37.5 °F 30.6 °F 63% 30.06 in 10.0 mi South 8.1 mph - N/A   Clear
9:55 AM 45.0 °F 38.9 °F 30.6 °F 57% 30.06 in 10.0 mi South 12.7 mph - N/A   Clear
10:15 AM 47.7 °F - 30.0 °F 50% 30.05 in 10.0 mi South 16.1 mph - N/A   Clear
10:35 AM 51.1 °F - 30.0 °F 44% 30.04 in 10.0 mi South 13.8 mph - N/A   Clear
10:55 AM 53.4 °F - 29.3 °F 40% 30.02 in 10.0 mi South 16.1 mph - N/A   Clear
11:15 AM 56.1 °F - 29.8 °F 37% 30.01 in 10.0 mi South 21.9 mph 26.5 mph N/A   Clear
11:35 AM 57.9 °F - 30.6 °F 35% 29.99 in 10.0 mi South 23.0 mph 27.6 mph N/A   Clear
11:55 AM 58.5 °F - 31.3 °F 36% 29.98 in 10.0 mi South 23.0 mph 28.8 mph N/A   Clear
12:15 PM 60.1 °F - 31.3 °F 34% 29.96 in 10.0 mi South 18.4 mph 26.5 mph N/A   Clear
12:35 PM 61.2 °F - 31.8 °F 33% 29.95 in 10.0 mi South 24.2 mph 32.2 mph N/A   Clear
12:55 PM 62.1 °F - 31.5 °F 32% 29.93 in 10.0 mi South 25.3 mph 32.2 mph N/A   Clear
1:15 PM 62.4 °F - 31.6 °F 31% 29.92 in 10.0 mi South 23.0 mph 32.2 mph N/A   Clear
1:35 PM 62.6 °F - 30.2 °F 30% 29.91 in 10.0 mi South 27.6 mph 36.8 mph N/A   Clear
1:55 PM 62.2 °F - 29.8 °F 29% 29.90 in 10.0 mi South 25.3 mph 39.1 mph N/A   Scattered Clouds
2:15 PM 62.4 °F - 29.3 °F 29% 29.89 in 10.0 mi South 28.8 mph 38.0 mph N/A   Scattered Clouds
2:35 PM 62.6 °F - 28.2 °F 27% 29.88 in 10.0 mi South 28.8 mph 34.5 mph N/A   Clear
2:55 PM 62.6 °F - 27.1 °F 26% 29.87 in 10.0 mi South 26.5 mph 35.7 mph N/A   Clear
3:15 PM 61.7 °F - 26.8 °F 27% 29.87 in 10.0 mi South 28.8 mph 35.7 mph N/A   Clear
3:35 PM 61.5 °F - 27.3 °F 27% 29.86 in 10.0 mi South 28.8 mph 35.7 mph N/A   Clear
3:55 PM 61.0 °F - 26.6 °F 27% 29.86 in 10.0 mi South 27.6 mph 34.5 mph N/A   Clear
4:15 PM 60.1 °F - 26.6 °F 28% 29.85 in 10.0 mi SSE 24.2 mph 28.8 mph N/A   Clear
4:35 PM 58.5 °F - 26.2 °F 29% 29.85 in 10.0 mi SSE 20.7 mph 25.3 mph N/A   Clear
4:55 PM 57.2 °F - 25.7 °F 30% 29.85 in 10.0 mi SSE 17.3 mph 24.2 mph N/A   Clear
5:15 PM 55.8 °F - 25.2 °F 31% 29.86 in 10.0 mi SSE 19.6 mph 24.2 mph N/A   Clear
5:35 PM 55.4 °F - 24.8 °F 31% 29.85 in 10.0 mi SSE 17.3 mph - N/A   Scattered Clouds
5:55 PM 56.1 °F - 24.4 °F 29% 29.85 in 10.0 mi SSE 18.4 mph 25.3 mph N/A   Overcast
6:15 PM 56.3 °F - 23.5 °F 28% 29.86 in 10.0 mi SSE 20.7 mph 26.5 mph N/A   Overcast
6:35 PM 55.4 °F - 23.9 °F 30% 29.86 in 10.0 mi SSE 17.3 mph 21.9 mph N/A   Overcast
6:55 PM 54.9 °F - 23.7 °F 30% 29.86 in 10.0 mi SSE 17.3 mph 21.9 mph N/A   Overcast
7:15 PM 54.5 °F - 24.3 °F 31% 29.86 in 10.0 mi SSE 18.4 mph - N/A   Overcast
7:35 PM 54.9 °F - 24.3 °F 31% 29.86 in 10.0 mi SSE 19.6 mph 25.3 mph N/A   Overcast
7:55 PM 54.5 °F - 24.6 °F 31% 29.86 in 10.0 mi SSE 18.4 mph 25.3 mph N/A   Overcast
8:15 PM 54.1 °F - 23.9 °F 31% 29.86 in 10.0 mi SSE 24.2 mph 28.8 mph N/A   Overcast
8:35 PM 54.7 °F - 22.8 °F 29% 29.86 in 10.0 mi South 23.0 mph 31.1 mph N/A   Mostly Cloudy
8:55 PM 53.8 °F - 22.8 °F 30% 29.86 in 10.0 mi South 23.0 mph 32.2 mph N/A   Scattered Clouds
9:15 PM 52.7 °F - 23.2 °F 32% 29.86 in 10.0 mi South 18.4 mph 24.2 mph N/A   Clear
9:35 PM 51.1 °F - 23.7 °F 34% 29.86 in 10.0 mi SSE 12.7 mph - N/A   Clear
9:55 PM 49.6 °F - 25.3 °F 39% 29.86 in 10.0 mi SSE 12.7 mph - N/A   Scattered Clouds
10:15 PM 48.2 °F - 27.3 °F 44% 29.86 in 10.0 mi SSE 11.5 mph - N/A   Scattered Clouds
10:35 PM 48.2 °F - 28.2 °F 46% 29.86 in 10.0 mi SSE 11.5 mph 17.3 mph N/A   Clear
10:55 PM 47.3 °F - 28.4 °F 48% 29.86 in 10.0 mi SSE 11.5 mph - N/A   Clear
11:15 PM 47.7 °F - 28.8 °F 48% 29.86 in 10.0 mi SSE 11.5 mph - N/A   Clear
11:35 PM 47.7 °F - 28.9 °F 48% 29.86 in 10.0 mi SSE 11.5 mph - N/A   Clear
11:55 PM 47.5 °F - 29.1 °F 49% 29.85 in 10.0 mi SSE 11.5 mph - N/A   Clear